Year,Month,Day,Hour,Minute,Value (Times are PST for windspeed in km/hr)
2010,04,02,00,00,11.70
2010,04,02,00,01,11.00
2010,04,02,00,02,12.10
2010,04,02,00,03,11.80
2010,04,02,00,04,6.50
2010,04,02,00,05,5.00
2010,04,02,00,06,9.20
2010,04,02,00,07,8.50
2010,04,02,00,08,11.10
2010,04,02,00,09,9.90
2010,04,02,00,10,8.00
2010,04,02,00,11,8.00
2010,04,02,00,12,10.50
2010,04,02,00,13,9.30
2010,04,02,00,14,8.50
2010,04,02,00,15,4.00
2010,04,02,00,16,7.20
2010,04,02,00,17,11.80
2010,04,02,00,18,11.10
2010,04,02,00,19,5.70
2010,04,02,00,20,10.30
2010,04,02,00,21,12.20
2010,04,02,00,22,9.90
2010,04,02,00,23,6.00
2010,04,02,00,24,5.20
2010,04,02,00,25,7.00
2010,04,02,00,26,5.60
2010,04,02,00,27,7.30
2010,04,02,00,28,6.60
2010,04,02,00,29,5.10
2010,04,02,00,30,12.40
2010,04,02,00,31,10.90
2010,04,02,00,32,12.10
2010,04,02,00,33,3.10
2010,04,02,00,34,5.80
2010,04,02,00,35,8.50
2010,04,02,00,36,10.80
2010,04,02,00,37,7.80
2010,04,02,00,38,14.20
2010,04,02,00,39,13.90
2010,04,02,00,40,8.00
2010,04,02,00,41,10.20
2010,04,02,00,42,8.60
2010,04,02,00,43,7.20
2010,04,02,00,44,13.60
2010,04,02,00,45,10.20
2010,04,02,00,46,8.60
2010,04,02,00,47,9.40
2010,04,02,00,48,8.70
2010,04,02,00,49,9.20
2010,04,02,00,50,9.50
2010,04,02,00,51,11.40
2010,04,02,00,52,11.60
2010,04,02,00,53,5.90
2010,04,02,00,54,4.80
2010,04,02,00,55,16.30
2010,04,02,00,56,7.70
2010,04,02,00,57,7.80
2010,04,02,00,58,14.90
2010,04,02,00,59,7.40
2010,04,02,01,00,13.80
2010,04,02,01,01,11.10
2010,04,02,01,02,7.10
2010,04,02,01,03,6.10
2010,04,02,01,04,8.40
2010,04,02,01,05,12.80
2010,04,02,01,06,9.00
2010,04,02,01,07,9.80
2010,04,02,01,08,10.70
2010,04,02,01,09,11.20
2010,04,02,01,10,14.30
2010,04,02,01,11,8.60
2010,04,02,01,12,6.40
2010,04,02,01,13,14.10
2010,04,02,01,14,8.00
2010,04,02,01,15,10.10
2010,04,02,01,16,10.10
2010,04,02,01,17,7.60
2010,04,02,01,18,12.60
2010,04,02,01,19,11.80
2010,04,02,01,20,9.70
2010,04,02,01,21,14.00
2010,04,02,01,22,6.40
2010,04,02,01,23,11.20
2010,04,02,01,24,6.10
2010,04,02,01,25,10.80
2010,04,02,01,26,10.20
2010,04,02,01,27,9.40
2010,04,02,01,28,14.90
2010,04,02,01,29,5.90
2010,04,02,01,30,6.80
2010,04,02,01,31,9.80
2010,04,02,01,32,11.40
2010,04,02,01,33,9.40
2010,04,02,01,34,16.30
2010,04,02,01,35,12.30
2010,04,02,01,36,12.20
2010,04,02,01,37,14.50
2010,04,02,01,38,7.10
2010,04,02,01,39,9.40
2010,04,02,01,40,8.10
2010,04,02,01,41,7.40
2010,04,02,01,42,10.90
2010,04,02,01,43,15.20
2010,04,02,01,44,12.30
2010,04,02,01,45,12.50
2010,04,02,01,46,7.60
2010,04,02,01,47,16.40
2010,04,02,01,48,21.50
2010,04,02,01,49,10.00
2010,04,02,01,50,15.60
2010,04,02,01,51,9.40
2010,04,02,01,52,12.20
2010,04,02,01,53,6.80
2010,04,02,01,54,6.80
2010,04,02,01,55,12.90
2010,04,02,01,56,12.40
2010,04,02,01,57,9.30
2010,04,02,01,58,18.30
2010,04,02,01,59,11.80
2010,04,02,02,00,12.60
2010,04,02,02,01,6.40
2010,04,02,02,02,10.00
2010,04,02,02,03,9.40
2010,04,02,02,04,10.10
2010,04,02,02,05,6.70
2010,04,02,02,06,11.20
2010,04,02,02,07,9.30
2010,04,02,02,08,10.40
2010,04,02,02,09,10.70
2010,04,02,02,10,13.00
2010,04,02,02,11,12.20
2010,04,02,02,12,15.10
2010,04,02,02,13,9.70
2010,04,02,02,14,8.30
2010,04,02,02,15,12.70
2010,04,02,02,16,16.50
2010,04,02,02,17,8.90
2010,04,02,02,18,8.90
2010,04,02,02,19,6.80
2010,04,02,02,20,10.70
2010,04,02,02,21,7.50
2010,04,02,02,22,10.40
2010,04,02,02,23,12.50
2010,04,02,02,24,9.80
2010,04,02,02,25,10.70
2010,04,02,02,26,8.10
2010,04,02,02,27,7.20
2010,04,02,02,28,7.20
2010,04,02,02,29,13.00
2010,04,02,02,30,15.40
2010,04,02,02,31,6.80
2010,04,02,02,32,11.30
2010,04,02,02,33,11.20
2010,04,02,02,34,7.10
2010,04,02,02,35,3.40
2010,04,02,02,36,4.90
2010,04,02,02,37,9.00
2010,04,02,02,38,6.00
2010,04,02,02,39,5.80
2010,04,02,02,40,4.30
2010,04,02,02,41,5.00
2010,04,02,02,42,8.70
2010,04,02,02,43,12.60
2010,04,02,02,44,5.80
2010,04,02,02,45,8.30
2010,04,02,02,46,7.90
2010,04,02,02,47,5.80
2010,04,02,02,48,4.80
2010,04,02,02,49,7.10
2010,04,02,02,50,3.70
2010,04,02,02,51,9.70
2010,04,02,02,52,7.60
2010,04,02,02,53,5.80
2010,04,02,02,54,10.20
2010,04,02,02,55,9.60
2010,04,02,02,56,4.70
2010,04,02,02,57,9.80
2010,04,02,02,58,5.50
2010,04,02,02,59,4.30
2010,04,02,03,00,6.80
2010,04,02,03,01,4.70
2010,04,02,03,02,5.80
2010,04,02,03,03,4.70
2010,04,02,03,04,2.70
2010,04,02,03,05,6.20
2010,04,02,03,06,6.80
2010,04,02,03,07,5.70
2010,04,02,03,08,6.60
2010,04,02,03,09,5.10
2010,04,02,03,10,4.60
2010,04,02,03,11,7.70
2010,04,02,03,12,10.40
2010,04,02,03,13,9.20
2010,04,02,03,14,3.10
2010,04,02,03,15,5.50
2010,04,02,03,16,2.70
2010,04,02,03,17,4.70
2010,04,02,03,18,11.20
2010,04,02,03,19,14.90
2010,04,02,03,20,9.00
2010,04,02,03,21,7.10
2010,04,02,03,22,4.60
2010,04,02,03,23,4.60
2010,04,02,03,24,5.50
2010,04,02,03,25,4.70
2010,04,02,03,26,10.20
2010,04,02,03,27,6.00
2010,04,02,03,28,10.10
2010,04,02,03,29,10.80
2010,04,02,03,30,6.70
2010,04,02,03,31,3.70
2010,04,02,03,32,8.80
2010,04,02,03,33,7.20
2010,04,02,03,34,3.40
2010,04,02,03,35,11.10
2010,04,02,03,36,7.60
2010,04,02,03,37,8.60
2010,04,02,03,38,9.50
2010,04,02,03,39,6.30
2010,04,02,03,40,6.80
2010,04,02,03,41,4.40
2010,04,02,03,42,5.70
2010,04,02,03,43,8.30
2010,04,02,03,44,6.10
2010,04,02,03,45,7.50
2010,04,02,03,46,7.90
2010,04,02,03,47,6.80
2010,04,02,03,48,10.50
2010,04,02,03,49,5.60
2010,04,02,03,50,10.20
2010,04,02,03,51,7.00
2010,04,02,03,52,8.20
2010,04,02,03,53,5.60
2010,04,02,03,54,10.50
2010,04,02,03,55,12.60
2010,04,02,03,56,6.40
2010,04,02,03,57,11.00
2010,04,02,03,58,6.40
2010,04,02,03,59,8.70
2010,04,02,04,00,10.90
2010,04,02,04,01,9.70
2010,04,02,04,02,4.10
2010,04,02,04,03,5.30
2010,04,02,04,04,5.50
2010,04,02,04,05,9.80
2010,04,02,04,06,8.90
2010,04,02,04,07,9.70
2010,04,02,04,08,8.00
2010,04,02,04,09,5.60
2010,04,02,04,10,7.20
2010,04,02,04,11,8.70
2010,04,02,04,12,4.50
2010,04,02,04,13,4.40
2010,04,02,04,14,5.10
2010,04,02,04,15,4.90
2010,04,02,04,16,8.30
2010,04,02,04,17,7.40
2010,04,02,04,18,8.80
2010,04,02,04,19,6.40
2010,04,02,04,20,10.40
2010,04,02,04,21,4.30
2010,04,02,04,22,7.60
2010,04,02,04,23,7.40
2010,04,02,04,24,3.80
2010,04,02,04,25,4.90
2010,04,02,04,26,12.20
2010,04,02,04,27,5.70
2010,04,02,04,28,9.30
2010,04,02,04,29,9.90
2010,04,02,04,30,5.70
2010,04,02,04,31,9.90
2010,04,02,04,32,7.20
2010,04,02,04,33,10.30
2010,04,02,04,34,10.90
2010,04,02,04,35,6.00
2010,04,02,04,36,7.00
2010,04,02,04,37,10.70
2010,04,02,04,38,5.80
2010,04,02,04,39,5.70
2010,04,02,04,40,7.30
2010,04,02,04,41,5.20
2010,04,02,04,42,6.20
2010,04,02,04,43,3.60
2010,04,02,04,44,5.40
2010,04,02,04,45,7.00
2010,04,02,04,46,7.70
2010,04,02,04,47,7.60
2010,04,02,04,48,11.50
2010,04,02,04,49,4.70
2010,04,02,04,50,6.40
2010,04,02,04,51,6.40
2010,04,02,04,52,8.00
2010,04,02,04,53,11.80
2010,04,02,04,54,14.80
2010,04,02,04,55,12.50
2010,04,02,04,56,10.40
2010,04,02,04,57,9.70
2010,04,02,04,58,8.60
2010,04,02,04,59,12.20
2010,04,02,05,00,11.60
2010,04,02,05,01,14.20
2010,04,02,05,02,6.90
2010,04,02,05,03,9.60
2010,04,02,05,04,9.80
2010,04,02,05,05,15.90
2010,04,02,05,06,10.20
2010,04,02,05,07,15.40
2010,04,02,05,08,7.90
2010,04,02,05,09,8.70
2010,04,02,05,10,8.90
2010,04,02,05,11,6.40
2010,04,02,05,12,7.40
2010,04,02,05,13,6.50
2010,04,02,05,14,11.80
2010,04,02,05,15,8.30
2010,04,02,05,16,11.20
2010,04,02,05,17,10.90
2010,04,02,05,18,13.80
2010,04,02,05,19,9.50
2010,04,02,05,20,10.50
2010,04,02,05,21,12.30
2010,04,02,05,22,11.80
2010,04,02,05,23,8.70
2010,04,02,05,24,12.70
2010,04,02,05,25,6.80
2010,04,02,05,26,9.40
2010,04,02,05,27,6.20
2010,04,02,05,28,5.80
2010,04,02,05,29,5.50
2010,04,02,05,30,4.70
2010,04,02,05,31,10.50
2010,04,02,05,32,5.50
2010,04,02,05,33,10.60
2010,04,02,05,34,4.70
2010,04,02,05,35,6.00
2010,04,02,05,36,9.30
2010,04,02,05,37,4.40
2010,04,02,05,38,8.60
2010,04,02,05,39,7.90
2010,04,02,05,40,4.20
2010,04,02,05,41,7.40
2010,04,02,05,42,12.10
2010,04,02,05,43,7.60
2010,04,02,05,44,11.90
2010,04,02,05,45,7.50
2010,04,02,05,46,8.30
2010,04,02,05,47,8.10
2010,04,02,05,48,8.30
2010,04,02,05,49,15.80
2010,04,02,05,50,7.90
2010,04,02,05,51,6.20
2010,04,02,05,52,12.10
2010,04,02,05,53,8.90
2010,04,02,05,54,9.80
2010,04,02,05,55,11.20
2010,04,02,05,56,13.90
2010,04,02,05,57,11.00
2010,04,02,05,58,6.50
2010,04,02,05,59,15.10
2010,04,02,06,00,14.40
2010,04,02,06,01,11.00
2010,04,02,06,02,15.50
2010,04,02,06,03,10.50
2010,04,02,06,04,6.40
2010,04,02,06,05,12.90
2010,04,02,06,06,8.30
2010,04,02,06,07,11.80
2010,04,02,06,08,9.40
2010,04,02,06,09,9.50
2010,04,02,06,10,3.60
2010,04,02,06,11,15.30
2010,04,02,06,12,10.00
2010,04,02,06,13,7.10
2010,04,02,06,14,10.20
2010,04,02,06,15,8.30
2010,04,02,06,16,8.00
2010,04,02,06,17,4.90
2010,04,02,06,18,4.90
2010,04,02,06,19,8.00
2010,04,02,06,20,6.50
2010,04,02,06,21,5.20
2010,04,02,06,22,12.00
2010,04,02,06,23,16.00
2010,04,02,06,24,10.50
2010,04,02,06,25,14.20
2010,04,02,06,26,10.90
2010,04,02,06,27,7.50
2010,04,02,06,28,16.30
2010,04,02,06,29,18.00
2010,04,02,06,30,14.20
2010,04,02,06,31,9.50
2010,04,02,06,32,14.00
2010,04,02,06,33,11.70
2010,04,02,06,34,14.80
2010,04,02,06,35,12.80
2010,04,02,06,36,9.30
2010,04,02,06,37,16.40
2010,04,02,06,38,5.80
2010,04,02,06,39,11.00
2010,04,02,06,40,10.50
2010,04,02,06,41,13.40
2010,04,02,06,42,12.40
2010,04,02,06,43,10.20
2010,04,02,06,44,11.40
2010,04,02,06,45,10.00
2010,04,02,06,46,13.70
2010,04,02,06,47,9.00
2010,04,02,06,48,10.50
2010,04,02,06,49,9.00
2010,04,02,06,50,12.50
2010,04,02,06,51,10.00
2010,04,02,06,52,6.50
2010,04,02,06,53,6.90
2010,04,02,06,54,9.20
2010,04,02,06,55,19.00
2010,04,02,06,56,10.70
2010,04,02,06,57,14.70
2010,04,02,06,58,14.80
2010,04,02,06,59,12.20
2010,04,02,07,00,13.50
2010,04,02,07,01,9.30
2010,04,02,07,02,12.90
2010,04,02,07,03,21.90
2010,04,02,07,04,10.50
2010,04,02,07,05,16.90
2010,04,02,07,06,12.50
2010,04,02,07,07,14.40
2010,04,02,07,08,19.20
2010,04,02,07,09,22.30
2010,04,02,07,10,14.20
2010,04,02,07,11,18.20
2010,04,02,07,12,19.10
2010,04,02,07,13,19.90
2010,04,02,07,14,15.10
2010,04,02,07,15,17.20
2010,04,02,07,16,12.60
2010,04,02,07,17,18.60
2010,04,02,07,18,21.60
2010,04,02,07,19,17.10
2010,04,02,07,20,11.30
2010,04,02,07,21,24.60
2010,04,02,07,22,15.70
2010,04,02,07,23,11.80
2010,04,02,07,24,16.30
2010,04,02,07,25,11.70
2010,04,02,07,26,15.90
2010,04,02,07,27,14.00
2010,04,02,07,28,11.50
2010,04,02,07,29,14.70
2010,04,02,07,30,22.50
2010,04,02,07,31,20.70
2010,04,02,07,32,21.10
2010,04,02,07,33,21.20
2010,04,02,07,34,18.80
2010,04,02,07,35,17.50
2010,04,02,07,36,16.20
2010,04,02,07,37,14.80
2010,04,02,07,38,12.70
2010,04,02,07,39,20.00
2010,04,02,07,40,14.40
2010,04,02,07,41,7.90
2010,04,02,07,42,9.40
2010,04,02,07,43,22.40
2010,04,02,07,44,17.20
2010,04,02,07,45,11.20
2010,04,02,07,46,15.40
2010,04,02,07,47,19.00
2010,04,02,07,48,11.40
2010,04,02,07,49,17.50
2010,04,02,07,50,27.70
2010,04,02,07,51,22.10
2010,04,02,07,52,23.30
2010,04,02,07,53,15.40
2010,04,02,07,54,19.40
2010,04,02,07,55,20.50
2010,04,02,07,56,15.80
2010,04,02,07,57,19.60
2010,04,02,07,58,16.40
2010,04,02,07,59,14.80
2010,04,02,08,00,15.90
2010,04,02,08,01,16.70
2010,04,02,08,02,14.40
2010,04,02,08,03,7.10
2010,04,02,08,04,25.80
2010,04,02,08,05,27.60
2010,04,02,08,06,19.60
2010,04,02,08,07,19.10
2010,04,02,08,08,16.90
2010,04,02,08,09,16.60
2010,04,02,08,10,15.70
2010,04,02,08,11,15.70
2010,04,02,08,12,16.50
2010,04,02,08,13,20.60
2010,04,02,08,14,19.10
2010,04,02,08,15,20.00
2010,04,02,08,16,23.10
2010,04,02,08,17,17.50
2010,04,02,08,18,17.10
2010,04,02,08,19,14.90
2010,04,02,08,20,23.40
2010,04,02,08,21,15.00
2010,04,02,08,22,16.70
2010,04,02,08,23,17.40
2010,04,02,08,24,15.20
2010,04,02,08,25,15.30
2010,04,02,08,26,18.80
2010,04,02,08,27,18.40
2010,04,02,08,28,31.50
2010,04,02,08,29,14.60
2010,04,02,08,30,16.10
2010,04,02,08,31,13.70
2010,04,02,08,32,20.00
2010,04,02,08,33,22.00
2010,04,02,08,34,17.60
2010,04,02,08,35,19.20
2010,04,02,08,36,19.20
2010,04,02,08,37,12.50
2010,04,02,08,38,13.40
2010,04,02,08,39,12.80
2010,04,02,08,40,7.70
2010,04,02,08,41,14.80
2010,04,02,08,42,15.60
2010,04,02,08,43,25.20
2010,04,02,08,44,15.40
2010,04,02,12,04,12.40
2010,04,02,12,05,14.20
2010,04,02,12,06,15.90
2010,04,02,12,07,15.80
2010,04,02,12,08,11.40
2010,04,02,12,09,12.30
2010,04,02,12,10,18.20
2010,04,02,12,11,14.60
2010,04,02,12,12,7.80
2010,04,02,12,13,11.80
2010,04,02,12,14,21.20
2010,04,02,12,15,16.80
2010,04,02,12,16,14.80
2010,04,02,12,17,16.70
2010,04,02,12,18,14.30
2010,04,02,12,19,19.60
2010,04,02,12,20,18.20
2010,04,02,12,21,21.30
2010,04,02,12,22,19.40
2010,04,02,12,23,16.70
2010,04,02,12,24,9.70
2010,04,02,12,25,20.50
2010,04,02,12,26,21.50
2010,04,02,12,27,16.30
2010,04,02,12,28,17.20
2010,04,02,12,29,17.60
2010,04,02,12,30,23.00
2010,04,02,12,31,23.40
2010,04,02,12,32,20.30
2010,04,02,12,33,14.60
2010,04,02,12,34,13.10
2010,04,02,12,35,15.00
2010,04,02,12,36,15.30
2010,04,02,12,37,14.60
2010,04,02,12,38,10.20
2010,04,02,12,39,12.50
2010,04,02,12,40,21.50
2010,04,02,12,41,17.90
2010,04,02,12,42,20.00
2010,04,02,12,43,25.00
2010,04,02,12,44,20.40
2010,04,02,12,45,8.90
2010,04,02,12,46,22.20
2010,04,02,12,47,15.90
2010,04,02,12,48,17.10
2010,04,02,12,49,7.30
2010,04,02,12,50,23.30
2010,04,02,12,51,14.80
2010,04,02,12,52,11.70
2010,04,02,12,53,18.30
2010,04,02,12,54,21.20
2010,04,02,12,55,13.90
2010,04,02,12,56,18.60
2010,04,02,12,57,22.80
2010,04,02,12,58,18.70
2010,04,02,12,59,25.50
2010,04,02,13,00,17.40
2010,04,02,13,01,14.70
2010,04,02,13,02,13.10
2010,04,02,13,03,20.40
2010,04,02,13,04,22.40
2010,04,02,13,05,25.50
2010,04,02,13,06,14.90
2010,04,02,13,07,21.90
2010,04,02,13,08,16.10
2010,04,02,13,09,12.40
2010,04,02,13,10,19.40
2010,04,02,13,11,22.00
2010,04,02,13,12,21.80
2010,04,02,13,13,15.80
2010,04,02,13,14,25.00
2010,04,02,13,15,10.00
2010,04,02,13,16,23.20
2010,04,02,13,17,21.20
2010,04,02,13,18,22.50
2010,04,02,13,19,19.30
2010,04,02,13,20,14.00
2010,04,02,13,21,21.40
2010,04,02,13,22,15.10
2010,04,02,13,23,15.10
2010,04,02,13,24,14.20
2010,04,02,13,25,22.40
2010,04,02,13,26,15.40
2010,04,02,13,27,20.20
2010,04,02,13,28,21.80
2010,04,02,13,29,23.00
2010,04,02,13,30,22.50
2010,04,02,13,31,30.70
2010,04,02,13,32,23.40
2010,04,02,13,33,20.20
2010,04,02,13,34,15.80
2010,04,02,13,35,21.20
2010,04,02,13,36,19.20
2010,04,02,13,37,20.60
2010,04,02,13,38,12.30
2010,04,02,13,39,20.80
2010,04,02,13,40,12.90
2010,04,02,13,41,14.40
2010,04,02,13,42,17.70
2010,04,02,13,43,23.70
2010,04,02,13,44,20.50
2010,04,02,13,45,23.80
2010,04,02,13,46,19.80
2010,04,02,13,47,14.00
2010,04,02,13,48,15.50
2010,04,02,13,49,15.30
2010,04,02,13,50,9.80
2010,04,02,13,51,17.30
2010,04,02,13,52,18.40
2010,04,02,13,53,18.00
2010,04,02,13,54,19.30
2010,04,02,13,55,20.90
2010,04,02,13,56,14.10
2010,04,02,13,57,10.30
2010,04,02,13,58,19.60
2010,04,02,13,59,15.00
2010,04,02,14,00,19.70
2010,04,02,14,01,13.10
2010,04,02,14,02,11.20
2010,04,02,14,03,18.30
2010,04,02,14,04,9.70
2010,04,02,14,05,17.80
2010,04,02,14,06,9.20
2010,04,02,14,07,7.00
2010,04,02,14,08,15.10
2010,04,02,14,09,8.60
2010,04,02,14,10,16.70
2010,04,02,14,11,16.40
2010,04,02,14,12,29.50
2010,04,02,14,13,23.80
2010,04,02,14,14,21.50
2010,04,02,14,15,19.70
2010,04,02,14,16,14.50
2010,04,02,14,17,14.20
2010,04,02,14,18,28.30
2010,04,02,14,19,23.60
2010,04,02,14,20,22.10
2010,04,02,14,21,10.80
2010,04,02,14,22,15.50
2010,04,02,14,23,16.50
2010,04,02,14,24,17.90
2010,04,02,14,25,21.30
2010,04,02,14,26,17.10
2010,04,02,14,27,27.00
2010,04,02,14,28,14.90
2010,04,02,14,29,18.90
2010,04,02,14,30,23.70
2010,04,02,14,31,19.40
2010,04,02,14,32,13.40
2010,04,02,14,33,13.90
2010,04,02,14,34,9.60
2010,04,02,14,35,19.10
2010,04,02,14,36,21.60
2010,04,02,14,37,10.90
2010,04,02,14,38,22.70
2010,04,02,14,39,21.10
2010,04,02,14,40,25.10
2010,04,02,14,41,11.90
2010,04,02,14,42,11.70
2010,04,02,14,43,25.50
2010,04,02,14,44,15.90
2010,04,02,14,45,17.80
2010,04,02,14,46,13.90
2010,04,02,14,47,16.00
2010,04,02,14,48,16.90
2010,04,02,14,49,15.60
2010,04,02,14,50,17.80
2010,04,02,14,51,22.90
2010,04,02,14,52,19.30
2010,04,02,14,53,21.70
2010,04,02,14,54,15.20
2010,04,02,14,55,16.00
2010,04,02,14,56,16.10
2010,04,02,14,57,24.30
2010,04,02,14,58,20.60
2010,04,02,14,59,32.90
2010,04,02,15,00,23.30
2010,04,02,15,01,29.20
2010,04,02,15,02,22.70
2010,04,02,15,03,25.40
2010,04,02,15,04,21.80
2010,04,02,15,05,11.40
2010,04,02,15,06,15.80
2010,04,02,15,07,17.00
2010,04,02,15,08,14.80
2010,04,02,15,09,5.30
2010,04,02,15,10,14.50
2010,04,02,15,11,16.40
2010,04,02,15,12,17.50
2010,04,02,15,13,12.30
2010,04,02,15,14,12.30
2010,04,02,15,15,6.90
2010,04,02,15,16,13.80
2010,04,02,15,17,11.40
2010,04,02,15,18,16.50
2010,04,02,15,19,15.50
2010,04,02,15,20,17.10
2010,04,02,15,21,19.00
2010,04,02,15,22,20.40
2010,04,02,15,23,16.70
2010,04,02,15,24,26.20
2010,04,02,15,25,18.70
2010,04,02,15,26,16.20
2010,04,02,15,27,8.70
2010,04,02,15,28,16.10
2010,04,02,15,29,16.30
2010,04,02,15,30,17.60
2010,04,02,15,31,18.70
2010,04,02,15,32,17.90
2010,04,02,15,33,13.60
2010,04,02,15,34,18.70
2010,04,02,15,35,11.70
2010,04,02,15,36,12.10
2010,04,02,15,37,18.70
2010,04,02,15,38,17.20
2010,04,02,15,39,19.20
2010,04,02,15,40,10.20
2010,04,02,15,41,8.00
2010,04,02,15,42,7.90
2010,04,02,15,43,12.80
2010,04,02,15,44,16.10
2010,04,02,15,45,15.00
2010,04,02,15,46,14.10
2010,04,02,15,47,9.30
2010,04,02,15,48,14.00
2010,04,02,15,49,12.90
2010,04,02,15,50,12.80
2010,04,02,15,51,17.10
2010,04,02,15,52,13.00
2010,04,02,15,53,14.70
2010,04,02,15,54,19.20
2010,04,02,15,55,18.30
2010,04,02,15,56,16.30
2010,04,02,15,57,16.50
2010,04,02,15,58,13.10
2010,04,02,15,59,8.60
2010,04,02,16,00,12.60
2010,04,02,16,01,17.20
2010,04,02,16,02,18.60
2010,04,02,16,03,17.80
2010,04,02,16,04,8.90
2010,04,02,16,05,18.00
2010,04,02,16,06,18.00
2010,04,02,16,07,16.70
2010,04,02,16,08,11.20
2010,04,02,16,09,11.40
2010,04,02,16,10,13.40
2010,04,02,16,11,14.20
2010,04,02,16,12,21.90
2010,04,02,16,13,21.20
2010,04,02,16,14,14.40
2010,04,02,16,15,12.70
2010,04,02,16,16,15.90
2010,04,02,16,17,13.90
2010,04,02,16,18,14.60
2010,04,02,16,19,17.20
2010,04,02,16,20,17.80
2010,04,02,16,21,13.00
2010,04,02,16,22,15.40
2010,04,02,16,23,19.20
2010,04,02,16,24,10.50
2010,04,02,16,25,14.10
2010,04,02,16,26,13.80
2010,04,02,16,27,15.30
2010,04,02,16,28,21.00
2010,04,02,16,29,15.80
2010,04,02,16,30,20.00
2010,04,02,16,31,12.10
2010,04,02,16,32,13.50
2010,04,02,16,33,17.10
2010,04,02,16,34,16.30
2010,04,02,16,35,15.10
2010,04,02,16,36,8.70
2010,04,02,16,37,8.40
2010,04,02,16,38,10.70
2010,04,02,16,39,8.20
2010,04,02,16,40,15.10
2010,04,02,16,41,18.70
2010,04,02,16,42,20.80
2010,04,02,16,43,12.20
2010,04,02,16,44,17.90
2010,04,02,16,45,8.70
2010,04,02,16,46,6.00
2010,04,02,16,47,6.20
2010,04,02,16,48,8.40
2010,04,02,16,49,19.90
2010,04,02,16,50,14.00
2010,04,02,16,51,13.60
2010,04,02,16,52,16.10
2010,04,02,16,53,14.20
2010,04,02,16,54,14.10
2010,04,02,16,55,15.20
2010,04,02,16,56,14.80
2010,04,02,16,57,6.40
2010,04,02,16,58,7.80
2010,04,02,16,59,10.10
2010,04,02,17,00,16.00
2010,04,02,17,01,12.50
2010,04,02,17,02,10.70
2010,04,02,17,03,13.60
2010,04,02,17,04,6.60
2010,04,02,17,05,8.20
2010,04,02,17,06,10.00
2010,04,02,17,07,11.30
2010,04,02,17,08,9.40
2010,04,02,17,09,6.20
2010,04,02,17,10,7.20
2010,04,02,17,11,4.00
2010,04,02,17,12,9.00
2010,04,02,17,13,9.40
2010,04,02,17,14,10.90
2010,04,02,17,15,8.90
2010,04,02,17,16,14.20
2010,04,02,17,17,7.90
2010,04,02,17,18,8.70
2010,04,02,17,19,12.50
2010,04,02,17,20,8.00
2010,04,02,17,21,15.80
2010,04,02,17,22,9.70
2010,04,02,17,23,6.40
2010,04,02,17,24,9.80
2010,04,02,17,25,7.60
2010,04,02,17,26,6.30
2010,04,02,17,27,6.20
2010,04,02,17,28,13.20
2010,04,02,17,29,9.90
2010,04,02,17,30,3.70
2010,04,02,17,31,3.20
2010,04,02,17,32,7.50
2010,04,02,17,33,4.40
2010,04,02,17,34,5.40
2010,04,02,17,35,3.50
2010,04,02,17,36,4.80
2010,04,02,17,37,7.60
2010,04,02,17,38,9.10
2010,04,02,17,39,6.50
2010,04,02,17,40,8.90
2010,04,02,17,41,5.80
2010,04,02,17,42,7.40
2010,04,02,17,43,6.40
2010,04,02,17,44,5.60
2010,04,02,17,45,6.60
2010,04,02,17,46,4.80
2010,04,02,17,47,5.30
2010,04,02,17,48,6.80
2010,04,02,17,49,6.60
2010,04,02,17,50,3.40
2010,04,02,17,51,4.70
2010,04,02,17,52,5.20
2010,04,02,17,53,4.20
2010,04,02,17,54,8.00
2010,04,02,17,55,5.30
2010,04,02,17,56,3.80
2010,04,02,17,57,3.40
2010,04,02,17,58,0.30
2010,04,02,17,59,1.00
2010,04,02,18,00,2.00
2010,04,02,18,01,3.90
2010,04,02,18,02,7.50
2010,04,02,18,03,12.70
2010,04,02,18,04,9.70
2010,04,02,18,05,8.50
2010,04,02,18,06,6.50
2010,04,02,18,07,2.50
2010,04,02,18,08,5.60
2010,04,02,18,09,4.00
2010,04,02,18,10,4.50
2010,04,02,18,11,0.70
2010,04,02,18,12,4.50
2010,04,02,18,13,3.00
2010,04,02,18,14,0.80
2010,04,02,18,15,2.20
2010,04,02,18,16,4.10
2010,04,02,18,17,0.70
2010,04,02,18,18,1.70
2010,04,02,18,19,2.30
2010,04,02,18,20,2.80
2010,04,02,18,21,1.40
2010,04,02,18,22,6.50
2010,04,02,18,23,4.20
2010,04,02,18,24,3.10
2010,04,02,18,25,1.40
2010,04,02,18,26,1.80
2010,04,02,18,27,4.10
2010,04,02,18,28,2.50
2010,04,02,18,29,1.40
2010,04,02,18,30,0.00
2010,04,02,18,31,0.10
2010,04,02,18,32,0.20
2010,04,02,18,33,0.20
2010,04,02,18,34,0.00
2010,04,02,18,35,0.10
2010,04,02,18,36,0.10
2010,04,02,18,37,0.00
2010,04,02,18,38,0.10
2010,04,02,18,39,1.50
2010,04,02,18,40,0.00
2010,04,02,18,41,0.00
2010,04,02,18,42,0.00
2010,04,02,18,43,0.00
2010,04,02,18,44,0.30
2010,04,02,18,45,1.70
2010,04,02,18,46,0.70
2010,04,02,18,47,0.60
2010,04,02,18,48,1.60
2010,04,02,18,49,2.00
2010,04,02,18,50,0.90
2010,04,02,18,51,0.20
2010,04,02,18,52,0.00
2010,04,02,18,53,0.90
2010,04,02,18,54,2.00
2010,04,02,18,55,1.90
2010,04,02,18,56,3.00
2010,04,02,18,57,2.70
2010,04,02,18,58,1.60
2010,04,02,18,59,1.00
2010,04,02,19,00,0.30
2010,04,02,19,01,2.70
2010,04,02,19,02,0.30
2010,04,02,19,03,0.70
2010,04,02,19,04,1.20
2010,04,02,19,05,1.40
2010,04,02,19,06,1.10
2010,04,02,19,07,1.80
2010,04,02,19,08,0.50
2010,04,02,19,09,0.20
2010,04,02,19,10,3.20
2010,04,02,19,11,3.40
2010,04,02,19,12,1.10
2010,04,02,19,13,0.00
2010,04,02,19,14,0.50
2010,04,02,19,15,0.90
2010,04,02,19,16,0.40
2010,04,02,19,17,0.20
2010,04,02,19,18,0.10
2010,04,02,19,19,2.50
2010,04,02,19,20,0.90
2010,04,02,19,21,0.10
2010,04,02,19,22,1.20
2010,04,02,19,23,1.20
2010,04,02,19,24,0.60
2010,04,02,19,25,0.00
2010,04,02,19,26,0.00
2010,04,02,19,27,0.00
2010,04,02,19,28,0.20
2010,04,02,19,29,3.00
2010,04,02,19,30,2.90
2010,04,02,19,31,1.40
2010,04,02,19,32,0.00
2010,04,02,19,33,0.10
2010,04,02,19,34,0.00
2010,04,02,19,35,0.90
2010,04,02,19,36,5.30
2010,04,02,19,37,5.50
2010,04,02,19,38,3.50
2010,04,02,19,39,4.10
2010,04,02,19,40,2.70
2010,04,02,19,41,0.60
2010,04,02,19,42,0.00
2010,04,02,19,43,0.40
2010,04,02,19,44,1.50
2010,04,02,19,45,1.40
2010,04,02,19,46,0.10
2010,04,02,19,47,0.20
2010,04,02,19,48,1.40
2010,04,02,19,49,0.00
2010,04,02,19,50,0.60
2010,04,02,19,51,2.40
2010,04,02,19,52,3.70
2010,04,02,19,53,1.00
2010,04,02,19,54,2.10
2010,04,02,19,55,1.50
2010,04,02,19,56,4.80
2010,04,02,19,57,1.90
2010,04,02,19,58,1.40
2010,04,02,19,59,1.10
2010,04,02,20,00,1.40
2010,04,02,20,01,3.50
2010,04,02,20,02,0.80
2010,04,02,20,03,0.80
2010,04,02,20,04,3.60
2010,04,02,20,05,4.60
2010,04,02,20,06,5.00
2010,04,02,20,07,1.00
2010,04,02,20,08,0.00
2010,04,02,20,09,0.20
2010,04,02,20,10,1.30
2010,04,02,20,11,1.00
2010,04,02,20,12,0.10
2010,04,02,20,13,0.20
2010,04,02,20,14,0.80
2010,04,02,20,15,3.30
2010,04,02,20,16,1.80
2010,04,02,20,17,0.20
2010,04,02,20,18,2.30
2010,04,02,20,19,5.00
2010,04,02,20,20,4.20
2010,04,02,20,21,1.50
2010,04,02,20,22,0.50
2010,04,02,20,23,1.50
2010,04,02,20,24,4.20
2010,04,02,20,25,3.30
2010,04,02,20,26,0.80
2010,04,02,20,27,2.20
2010,04,02,20,28,4.70
2010,04,02,20,29,6.90
2010,04,02,20,30,3.70
2010,04,02,20,31,1.60
2010,04,02,20,32,0.00
2010,04,02,20,33,2.00
2010,04,02,20,34,1.50
2010,04,02,20,35,0.30
2010,04,02,20,36,0.40
2010,04,02,20,37,0.50
2010,04,02,20,38,1.90
2010,04,02,20,39,1.10
2010,04,02,20,40,4.50
2010,04,02,20,41,4.50
2010,04,02,20,42,5.80
2010,04,02,20,43,3.40
2010,04,02,20,44,0.20
2010,04,02,20,45,1.30
2010,04,02,20,46,0.20
2010,04,02,20,47,2.30
2010,04,02,20,48,2.20
2010,04,02,20,49,1.90
2010,04,02,20,50,0.60
2010,04,02,20,51,0.10
2010,04,02,20,52,0.20
2010,04,02,20,53,3.00
2010,04,02,20,54,1.80
2010,04,02,20,55,0.00
2010,04,02,20,56,0.00
2010,04,02,20,57,0.00
2010,04,02,20,58,1.70
2010,04,02,20,59,3.00
2010,04,02,21,00,2.70